Regional Weather Roundup
Issued by NWS

Home | Current Version | Previous Version | Text Only | Print | Product List | Glossary On
Versions: 1 2 3 4 5 6 7 8 9 10 11 12 13 14 15 16 17 18 19 20 21 22 23 24 25 26 27 28 29 30 31 32 33 34 35 36 37 38 39 40 41 42 43 44 45 46 47 48 49 50
000
ASUS43 KBIS 222210
RWRND

NORTH DAKOTA REGIONAL WEATHER ROUNDUP
NATIONAL WEATHER SERVICE BISMARCK ND
500 PM CDT WED OCT 22 2014

NOTE: "FAIR" INDICATES FEW OR NO CLOUDS BELOW 12,000 FEET WITH NO
SIGNIFICANT WEATHER AND/OR OBSTRUCTIONS TO VISIBILITY.


NDZ001>003-009>011-017-222300-
NORTHWEST NORTH DAKOTA

CITY           SKY/WX    TMP DP  RH WIND       PRES   REMARKS
WILLISTON      SUNNY     63  39  41 W17G25    29.81R
MINOT          CLOUDY    62  40  44 W16G25    29.78R
MINOT AFB      PTSUNNY   60  43  52 W20G31    29.76R
$$

NDZ018>021-031>035-040>046-222300-
SOUTHWEST NORTH DAKOTA

CITY           SKY/WX    TMP DP  RH WIND       PRES   REMARKS
BISMARCK       SUNNY     69  38  32 W17       29.84S
DICKINSON      SUNNY     62  34  35 W18G29    29.86R
GARRISON         N/A     63  40  42 W20G28    29.80S
HETTINGER ARPT SUNNY     63  31  30 W20G28    29.92S
$$

NDZ004>008-012>016-024-026-027-054-222300-
NORTHEAST NORTH DAKOTA

CITY           SKY/WX    TMP DP  RH WIND       PRES   REMARKS
GRAND FORKS    LGT RAIN  58  52  80 SW9       29.81R
GRND FRKS AFB  CLOUDY    57  57  99 SW8       29.81S
DEVILS LAKE    CLOUDY    55  46  71 S13       29.77S
$$

NDZ022-023-025-028>030-036>039-047>053-222300-
SOUTHEAST NORTH DAKOTA

CITY           SKY/WX    TMP DP  RH WIND       PRES   REMARKS
FARGO          CLOUDY    60  51  72 SW15      29.85R
JAMESTOWN      CLOUDY    56  51  84 SW6       29.85R
$$




USA.gov is the U.S. government's official web portal to all federal, state and local government web resources and services.